Location: Climax
(33.2048°N, 96.4497°W)
Time: 11:40:23
(UTC+00:00)

Cosmos 1805 Rocket - Pass Details

Date: 11 July 2022
Orbit: 605 x 629 km, 82.5° (Epoch: 10 August)

Event Time Altitude Azimuth Distance (km) Brightness Sun altitude
Exits shadow 07:46:04 15° 77° (ENE) 1,660 6.0 -31.9°
Drops below altitude 10° 07:48:03 10° 50° (NE) 1,980 6.8 -31.8°
Sets 07:51:01 0° 29° (NNE) 2,884 8.1 -31.5°
